Regional Weather Roundup
Issued by NWS Newport/Morehead, NC

Current Version | Previous Version | Graphics & Text | Print | Product List | Glossary Off
Versions: 1 2 3 4 5 6 7 8 9 10 11 12 13 14 15 16 17 18 19 20 21 22 23 24 25 26 27 28 29 30 31 32 33 34 35 36 37 38 39 40 41 42 43 44 45 46 47 48 49 50

000
ASUS42 KMHX 260722
RWRMHX
WEATHER ROUNDUP FOR EASTERN NORTH CAROLINA
NATIONAL WEATHER SERVICE NEWPORT/MOREHEAD CITY NC
300 AM EDT SAT JUL 26 2014

NOTE: "FAIR" INDICATES FEW OR NO CLOUDS BELOW 12,000 FEET
WITH NO SIGNIFICANT WEATHER AND/OR OBSTRUCTIONS TO VISIBILITY

NCZ015>017-031-032-045>047-102-103-260800-
NORTH COAST

CITY           SKY/WX    TMP DP  RH WIND       PRES   REMARKS
EDENTON        PTCLDY    68  65  89 SE3       30.02S
ELIZABETH CITY MOCLDY    67  63  87 CALM      30.02S
KITTY HAWK     SUNNY     74  61  64 CALM      30.00F
MANTEO         NOT AVBL

$$

NCZ045>047-081-094-103-104-260800-
CENTRAL COAST

CITY           SKY/WX    TMP DP  RH WIND       PRES   REMARKS
FRISCO         PTCLDY    74  71  91 E5        30.00F
SWANQUARTER      N/A     70 N/A N/A NE3       29.97S

$$

NCZ095-097-098-100-101-260800-
SOUTHERN COAST

CITY           SKY/WX    TMP DP  RH WIND       PRES   REMARKS
BEAUFORT       CLEAR     77  73  87 E3        29.99F
CEDAR ISLAND     N/A     77 N/A N/A E12       30.03S
JACKSONVILLE   CLEAR     75  73  93 E5        29.99F
NEWPORT        NOT AVBL
PINEY ISLAND   MOSUNNY   79  74  84 E8        29.99F
WILMINGTON     PTCLDY    73  72  96 CALM      29.99F


$$

NCZ011>013-027>030-043-044-078>080-089-090>093-098-260800-
COASTAL PLAIN

CITY           SKY/WX    TMP DP  RH WIND       PRES   REMARKS
AHOSKIE        PTCLDY    66  64  93 CALM      30.02F
CLINTON        PTCLDY    72  72 100 CALM      30.00F
ELIZABETHTOWN  CLEAR     73  73 100 CALM      30.00S FOG
GOLDSBORO      CLEAR     72  71  98 NE1       29.99F
GREENVILLE     MOCLDY    72  70  94 CALM      30.03S
HAVELOCK       CLEAR     73  70  90 CALM      30.01F
KENANSVILLE    PTCLDY    70  69  96 CALM      30.01F
KINSTON        CLEAR     72  70  95 CALM      30.01S
NEW BERN       CLEAR     76  71  85 E3        30.01F
RICHLANDS      CLOUDY    72  70  94 CALM      29.99F
ROANOKE RAPIDS NOT AVBL
ROCKY MOUNT    FOG       68  67  96 CALM      30.01F VSB 1/4
WASHINGTON     CLEAR     68  67  94 CALM      30.01F
WHITEVILLE     CLOUDY    75  73  96 CALM      29.99S

$$

AMZ130-135-150-152-154-156-158-170-250-252-270-ANZ085-086-088-633-658-670-260800-
MARINE OBSERVATIONS

STATION/POSITION TIME  TEMP    WIND        PRES    WAVE   SWELL
                       AIR SEA DIR/SP/G            HT/PER HT/PER
                 (UTC) (F)     (DEG/KT/KT) (MB)    (FT/S) (FT/S)
CHESAPEAKE LIGHT NOT AVBL
BUOY 44014       0700   76 78  160/  8/ 10 1016.2    2/ 7   2/ 7
DUCK             0700   76 77  130/ 10/ 12 1015.6
2E DUCK          0700                        N/A     2/ 7
OREGON INLET     0700   74 79  140/  4/  5 1016.3
BUOY 44095       0700      77                N/A     2/ 7
20E OREGON INLET NOT AVBL
HATTERAS CG      0700   77 81   90/  5/  7 1016.3
DIAMOND BUOY     0700          VRB 12/ 16  1015.2    3/ 6   2/ 6
CAPE LOOKOUT     0700   79      80/ 10/ 10 1015.5
BEAUFORT LAB     0700   77 81   80/  3/  5 1015.3
30 SE NEW RIVER  0700   79 81   70/  2/  2 1015.9    3/ 6   2/ 6
5 SE WRIGHTSVILL 0700   77 81  130/  8/  8   N/A
BUOY 41002       0626   81 82  250/ 12/ 14 1018.2    4/ 7   3/ 7
BUOY 41004       0700   80 83  190/ 10/ 12 1014.6    3/ 5   3/ 5

$$


USA.gov is the U.S. government's official web portal to all federal, state and local government web resources and services.